AirNav   Air Wisconsin pilot careers
 
 1670 users online  

K67 Oswego Municipal Airport
Oswego, Kansas, USA

GOING TO OSWEGO?


FAA INFORMATION EFFECTIVE 19 JULY 2018

Location

FAA Identifier: K67
Lat/Long: 37-09-33.8000N / 095-02-29.4000W
37-09.563333N / 095-02.490000W
37.1593889 / -95.0415000
(estimated)
Elevation: 832 ft. / 253.6 m (surveyed)
Variation: 05E (1985)
From city: 3 miles E of OSWEGO, KS
Time zone: UTC -5 (UTC -6 during Standard Time)
Zip code: 66725

Airport Operations

Airport use: Open to the public
Activation date: 08/1961
Control tower: no
ARTCC: KANSAS CITY CENTER
FSS: WICHITA FLIGHT SERVICE STATION
NOTAMs facility: ICT (NOTAM-D service available)
Attendance: UNATNDD
Wind indicator: yes
Segmented circle: no
Beacon: white-green (lighted land airport)
Operates sunset to sunrise.

Airport Communications

CTAF: 122.9

Nearby radio navigation aids

VOR radial/distance  VOR name  Freq  Var
OSWr081/7.8OSWEGO VOR/DME117.6008E
EOSr296/34.7NEOSHO VOR/DME117.3007E
CNUr132/38.4CHANUTE VOR/DME109.2005E

 
NDB name  Hdg/Dist  Freq  Var  ID
COFFEYVILLE076/25.721205ECFV -.-. ..-. ...-

Airport Services

Fuel available: 100LL
SELF SVC FUEL AVBL 24HRS
Parking: tiedowns
Airframe service: NONE
Powerplant service: NONE
Bottled oxygen: NONE
Bulk oxygen: NONE

Runway Information

Runway 17/35

Dimensions: 2500 x 50 ft. / 762 x 15 m
Surface: asphalt, in good condition
Runway edge lights: low intensity
RUNWAY 17  RUNWAY 35
Latitude: 37-09.768857N37-09.356787N
Longitude: 095-02.490013W095-02.490013W
Elevation: 832.0 ft.826.0 ft.
Traffic pattern: leftleft
Runway heading: 175 magnetic, 180 true355 magnetic, 000 true
Markings: basic, in good conditionbasic, in good condition
Obstructions: 23 ft. rr, 660 ft. from runway, 20:1 slope to clearnone

Airport Ownership and Management from official FAA records

Ownership: Publicly-owned
Owner: CITY OF OSWEGO
703 5TH ST
OSWEGO, KS 67356
Phone 620-795-4433
Manager: CALVIN JURGENSEN
PO BOX 210
OSWEGO, KS 67356
Phone (620) 429-0297

Airport Operational Statistics

Aircraft based on the field: 5
Single engine airplanes: 5
    
Aircraft operations: avg 46/month *
73% local general aviation
27% transient general aviation
* for 12-month period ending 23 March 2015

Additional Remarks

PUBLIC PHONE.
WILDLIFE ON & INVOF ARPT.

Instrument Procedures

There are no published instrument procedures at K67.

Some nearby airports with instrument procedures:

KMIO - Miami Regional Airport (17 nm SE)
KPTS - Atkinson Municipal Airport (23 nm NE)
KPPF - Tri-City Airport (24 nm NW)
KCFV - Coffeyville Municipal Airport (26 nm W)
KJLN - Joplin Regional Airport (26 nm E)
 
Loc | Ops | Rwys | IFR | FBO | Links
Com | Nav | Svcs | Stats | Notes

Kansas City Aviation Department
 
Area around K67 (Oswego Municipal Airport)
 
Road maps at: MapQuest Bing Google
 
Aerial photo
No photo
 
Sectional chart

 
Airport distance calculator
Flying to Oswego Municipal Airport? Find the distance to fly.

From to K67

Sunrise and sunset
Times for 14-Aug-2018
 Local
(UTC-5)
 Zulu
(UTC)
Morning civil twilight06:0911:09
Sunrise06:3711:37
Sunset20:1301:13
Evening civil twilight20:4101:41

Current date and time
Zulu (UTC)  14-Aug-2018 20:05:30
Local (UTC-5)  14-Aug-2018 15:05:30
 
METAR
KPTS 
23nm NE 
141555Z AUTO 21008KT 5SM RA OVC007 23/23 A2995 RMK AO2 T02310232
KPPF 
24nm NW 
141952Z AUTO 19003KT 10SM -RA SCT017 BKN028 OVC060 26/23 A2990 RMK AO2 RAB1855E06B44 SLP116 P0000 T02560233
KCFV 
26nm W 
141952Z AUTO 19013KT 10SM FEW021 SCT120 27/22 A2986 RMK AO2 RAB22E34 SLP104 P0001 T02670222
KJLN 
26nm E 
141953Z 21018G23KT 10SM BKN014 OVC037 26/21 A2993 RMK AO2 RAE16 SLP126 P0000 T02560211
KIDP 
35nm W 
141935Z AUTO 21005KT 10SM BKN024 BKN037 OVC120 24/22 A2990 RMK AO2 T02430218
KGMJ 
37nm SE 
141935Z AUTO 21011G16KT 10SM OVC018 26/21 A2996 RMK AO2
KCNU 
37nm NW 
141952Z AUTO 20013KT 10SM FEW019 SCT024 SCT029 28/22 A2989 RMK AO2 SLP111 T02780222
KEOS 
38nm SE 
SuperAWOS
141935Z AUTO 21008KT 10SM 23/22 A2998
KK88 
46nm N 
141935Z AUTO 20014KT 10SM SCT025 BKN033 BKN041 27/21 A2990 RMK AO1 T02650205
TAF
KJLN 
26nm E 
141720Z 1418/1518 20012G20KT P6SM VCSH OVC015 FM142100 21015G22KT P6SM VCSH OVC025 TEMPO 1421/1501 4SM -SHRA OVC015 FM150100 20012KT 4SM -SHRA BR VCTS OVC015CB FM151100 22012KT P6SM OVC007
NOTAMs
Click for the latest NOTAMs
NOTAMs are issued by the DoD/FAA and will open in a separate window not controlled by AirNav.

 

 
 

FBO, Fuel Providers, and Aircraft Ground Support

  
 Business Name 
 
 Contact 
 
 Services / Description 
 
Fuel Prices
 
Comments
  
Oswego Municipal Airport 620-795-4433
620-795-2565
[web site]
[email]
Aviation fuel, Aircraft parking (ramp or tiedown), Hangar leasing / sales

More info about Oswego Municipal Airport
Ascent
100LL
SS $4.50 
 Updated 08-Aug-2018
 
   1 read write
SS=Self service
Update Fuel Prices
 

Would you like to see your business listed on this page?

 If your business provides an interesting product or service to pilots, flight crews, aircraft, or users of the Oswego Municipal Airport, you should consider listing it here.  To start the listing process, click on the button below
 
Add a business
 

Other Pages about Oswego Municipal Airport

Update a link
 
Copyright © AirNav, LLC. All rights reserved. Privacy Policy  Contact